Pompano Beach, FL

9:05 AM EDT on May 24, 2017 (GMT -0400)
Pompano Beach

Weather History for KPMP - October, 2014

Change the Weather History Date:

Tuesday, October 28, 2014

  Actual Average Record
Temperature  
Mean Temperature 81 °F -  
Max Temperature 84 °F 84 °F 90 °F (1950)
Min Temperature 78 °F 68 °F 50 °F (1957)
Cooling Degree Days 16    
Growing Degree Days 31 (Base 50)    
Moisture  
Dew Point 64 °F    
Average Humidity 56    
Maximum Humidity 62    
Minimum Humidity 51    
Precipitation  
Precipitation 0.00 in - - ()
Sea Level Pressure  
Sea Level Pressure 30.11 in    
Wind  
Wind Speed 9 mph (East)    
Max Wind Speed 12 mph    
Max Gust Speed -    
Visibility 10 miles    
Events      
Averages and records for this station are not official NWS values.
T = Trace of Precipitation, MM = Missing Value Source: NWS Daily Summary

Daily Weather History Graph

Daily Weather History Graph

Search for Another Location

Airport or City:

Trip Planner

Search our weather history database for the weather conditions in past years. The results will help you decide how hot, cold, wet, or windy it might be!

Date:

Astronomy

Oct. 28, 2014 Rise Set
Actual Time 7:26 AM EDT 6:41 PM EDT
Civil Twilight 7:03 AM EDT 7:04 PM EDT
Nautical Twilight 6:35 AM EDT 7:32 PM EDT
Astronomical Twilight 6:08 AM EDT 7:59 PM EDT
Moon 11:44 AM EDT (10/28) 10:54 PM EDT (10/28)
Length of Visible Light 12h 01m
Length of Day
11h 14m
Waxing Crescent, 24% of the Moon is Illuminated
Oct 28
Waxing Crescent
Oct 30
First Quarter
Nov 6
Full
Nov 14
Last Quarter
Nov 22
New

Hourly Weather History & Observations

Time (EDT) Temp. Heat Index Dew Point Humidity Pressure Visibility Wind Dir Wind Speed Gust Speed Precip Events Conditions
12:53 AM 78.1 °F - 60.1 °F 54% 30.09 in 10.0 mi East 8.1 mph - N/A   Partly Cloudy
1:53 AM 78.1 °F - 61.0 °F 56% 30.09 in 10.0 mi East 6.9 mph - N/A   Clear
2:53 AM 78.1 °F - 60.1 °F 54% 30.09 in 10.0 mi East 8.1 mph - N/A   Partly Cloudy
3:53 AM 78.1 °F - 60.1 °F 54% 30.08 in 10.0 mi East 8.1 mph - N/A   Partly Cloudy
4:53 AM 78.1 °F - 62.1 °F 58% 30.08 in 10.0 mi East 5.8 mph - N/A   Partly Cloudy
5:53 AM 79.0 °F - 62.1 °F 56% 30.09 in 10.0 mi East 10.4 mph - N/A   Partly Cloudy
6:53 AM 78.1 °F - 59.0 °F 52% 30.11 in 10.0 mi East 10.4 mph - N/A   Clear
7:53 AM 78.1 °F - 60.1 °F 54% 30.12 in 10.0 mi East 8.1 mph - N/A   Clear
8:53 AM 81.0 °F 82.2 °F 63.0 °F 54% 30.14 in 10.0 mi East 9.2 mph - N/A   Scattered Clouds
9:53 AM 82.0 °F 83.4 °F 64.0 °F 54% 30.15 in 10.0 mi East 10.4 mph - N/A   Scattered Clouds
10:53 AM 82.9 °F 84.4 °F 64.0 °F 53% 30.15 in 10.0 mi East 10.4 mph - N/A   Scattered Clouds
11:53 AM 84.0 °F 85.4 °F 64.0 °F 51% 30.14 in 10.0 mi East 10.4 mph - N/A   Partly Cloudy
12:53 PM 84.9 °F 86.6 °F 64.9 °F 51% 30.13 in 10.0 mi East 9.2 mph - N/A   Scattered Clouds
1:53 PM 84.0 °F 86.3 °F 66.0 °F 55% 30.10 in 10.0 mi ESE 10.4 mph - N/A   Clear
2:53 PM 84.9 °F 87.6 °F 66.9 °F 55% 30.08 in 10.0 mi East 11.5 mph - N/A   Clear
3:53 PM 84.0 °F 86.5 °F 66.9 °F 56% 30.08 in 10.0 mi East 11.5 mph - N/A   Partly Cloudy
4:53 PM 84.0 °F 86.5 °F 66.9 °F 56% 30.08 in 10.0 mi East 10.4 mph - N/A   Clear
5:53 PM 81.0 °F 82.7 °F 64.9 °F 58% 30.08 in 10.0 mi East 10.4 mph - N/A   Clear
6:53 PM 81.0 °F 82.7 °F 64.9 °F 58% 30.09 in 10.0 mi East 10.4 mph - N/A   Partly Cloudy
7:53 PM 80.1 °F 81.7 °F 64.0 °F 58% 30.09 in 10.0 mi East 8.1 mph - N/A   Clear
8:53 PM 80.1 °F 81.9 °F 64.9 °F 60% 30.11 in 10.0 mi East 9.2 mph - N/A   Clear
9:53 PM 80.1 °F 82.1 °F 66.0 °F 62% 30.12 in 10.0 mi East 8.1 mph - N/A   Partly Cloudy
10:53 PM 80.1 °F 81.9 °F 64.9 °F 60% 30.12 in 10.0 mi ESE 8.1 mph - N/A   Clear
11:53 PM 80.1 °F 82.1 °F 66.0 °F 62% 30.11 in 10.0 mi East 10.4 mph - N/A   Scattered Clouds